Weather reports worldwide

Advertisment
Northolt, United Kingdom (3672): temperature & dewpoint: 17.11.2020 22:00:00 - 23.11.2020 22:00:00 (GMT)Northolt, United Kingdom (3672): temperature -20cm & temperature -100cm: 17.11.2020 22:00:00 - 23.11.2020 22:00:00 (GMT)Northolt, United Kingdom (3672): wind speed & gusts: 17.11.2020 22:00:00 - 23.11.2020 22:00:00 (GMT)Northolt, United Kingdom (3672): wind direction: 17.11.2020 22:00:00 - 23.11.2020 22:00:00 (GMT)Northolt, United Kingdom (3672): reduced air pressure: 17.11.2020 22:00:00 - 23.11.2020 22:00:00 (GMT)Northolt, United Kingdom (3672): visibility: 17.11.2020 22:00:00 - 23.11.2020 22:00:00 (GMT)Northolt, United Kingdom (3672): precipitation: 17.11.2020 22:00:00 - 23.11.2020 22:00:00 (GMT)
Date & Time tt [°C] td [°C] tt -20cm [°C] tt -100cm [°C] ff [km/h] ff [kn] fx [km/h] fx [kn] dd ppp [hPa] vv [km] rr [mm]
23.11.2020 22:00:00 7,5 6,9 - - 5 3 - - S 1024,2 18 0,0
23.11.2020 21:00:00 8,0 7,2 - - 9 5 - - SSW 1024,5 10 0,0
23.11.2020 20:00:00 8,4 7,1 - - 11 6 - - S 1024,7 10 0,0
23.11.2020 19:00:00 9,2 7,2 - - 9 5 - - S 1025,1 10 0,0
23.11.2020 18:00:00 9,4 7,3 - - 11 6 - - SSW 1025,6 10 0,0
23.11.2020 17:00:00 9,3 7,0 - - 11 6 - - S 1025,7 10 0,0
23.11.2020 16:00:00 9,2 6,9 - - 11 6 - - SSW 1026,1 10 0,0
23.11.2020 15:00:00 9,8 6,4 - - 13 7 - - SSW 1026,1 20 0,0
23.11.2020 14:00:00 9,8 6,8 - - 15 8 - - SW 1026,6 10 0,0
23.11.2020 13:00:00 8,5 5,8 - - 9 5 - - SSW 1027,4 10 0,0
23.11.2020 12:00:00 7,9 5,5 - - 8 4 - - SSW 1027,9 20 0,0
23.11.2020 11:00:00 6,2 5,8 - - 4 2 - - W 1028,6 10 0,0
23.11.2020 10:00:00 3,6 3,6 - - 4 2 - - SSE 1028,4 8 0,0
23.11.2020 09:00:00 1,6 1,5 10,0 12,0 4 2 - - WNW 1029,0 8 0,0
23.11.2020 08:00:00 1,0 0,9 - - 4 2 - - SE 1028,5 8 0,0
23.11.2020 07:00:00 0,8 0,6 - - 0 0 - - N 1028,2 10 0,0
23.11.2020 06:00:00 0,5 0,4 - - 2 1 - - SW 1028,0 10 0,0
23.11.2020 05:00:00 0,4 0,3 - - 2 1 - - S 1028,2 9 0,0
23.11.2020 04:00:00 0,3 0,1 - - 2 1 - - NNW 1028,2 9 0,0
23.11.2020 03:00:00 0,5 0,4 - - 2 1 - - NNW 1028,2 11 0,0
23.11.2020 02:00:00 0,1 -0,2 - - 4 2 - - WNW 1028,1 12 0,0
23.11.2020 01:00:00 0,6 0,3 - - 2 1 - - WSW 1028,3 10 0,0
23.11.2020 00:00:00 1,4 1,0 - - 2 1 - - WSW 1028,3 11 0,0
22.11.2020 23:00:00 2,3 1,8 - - 2 1 - - WSW 1027,9 16 0,0
22.11.2020 22:00:00 3,3 3,0 - - 2 1 - - W 1028,0 15 0,0
22.11.2020 21:00:00 3,0 2,4 - - 4 2 - - W 1027,8 10 0,0
22.11.2020 20:00:00 4,3 2,9 - - 2 1 - - W 1027,6 10 0,0
22.11.2020 19:00:00 5,6 4,0 - - 2 1 - - W 1027,4 10 0,0
22.11.2020 18:00:00 7,7 4,3 - - 8 4 - - W 1027,1 20 0,0
22.11.2020 17:00:00 8,8 5,0 - - 9 5 - - WNW 1026,8 10 0,0
22.11.2020 16:00:00 8,7 5,2 - - 8 4 - - WNW 1026,6 30 0,0
22.11.2020 15:00:00 10,7 5,0 - - 13 7 - - WNW 1026,2 10 0,0
22.11.2020 14:00:00 11,3 6,2 - - 11 6 - - WSW 1026,3 10 0,0
22.11.2020 13:00:00 11,0 7,4 - - 11 6 - - WSW 1026,7 10 0,0
22.11.2020 12:00:00 9,9 8,0 - - 11 6 - - W 1027,3 10 0,0
22.11.2020 11:00:00 9,6 8,0 - - 5 3 - - WSW 1027,6 10 0,0
22.11.2020 10:00:00 7,2 7,1 - - 4 2 - - WSW 1027,3 25 0,0
22.11.2020 09:00:00 7,2 7,2 10,5 12,0 2 1 - - WNW 1027,1 10 0,0
22.11.2020 08:00:00 6,2 6,0 - - 2 1 - - WNW 1026,8 10 0,0
22.11.2020 07:00:00 6,7 6,3 - - 4 2 - - WNW 1026,2 10 0,0
22.11.2020 06:00:00 8,6 7,9 - - 4 2 - - W 1025,8 45 0,0
22.11.2020 05:00:00 9,5 9,0 - - 5 3 - - WSW 1025,7 50 0,2
22.11.2020 04:00:00 9,8 9,2 - - 15 8 - - NNW 1025,6 2,9 0,4
22.11.2020 03:00:00 11,2 9,2 - - 18 10 - - WSW 1024,9 19 0,0
22.11.2020 02:00:00 11,2 9,0 - - 16 9 - - WSW 1024,8 10 0,0
22.11.2020 01:00:00 11,3 9,0 - - 16 9 - - WSW 1024,7 10 0,0
22.11.2020 00:00:00 11,4 8,8 - - 21 11 - - WSW 1024,7 45 0,0
21.11.2020 23:00:00 11,4 8,5 - - 18 10 - - WSW 1024,6 10 0,0
21.11.2020 22:00:00 11,4 8,6 - - 21 11 - - WSW 1025,1 10 0,0
21.11.2020 21:00:00 11,3 8,6 - - 18 10 - - WSW 1025,4 10 0,0
21.11.2020 20:00:00 11,3 8,7 - - 16 9 - - WSW 1025,6 35 0,0
21.11.2020 19:00:00 11,4 8,4 - - 15 8 - - SW 1025,8 10 0,0
21.11.2020 18:00:00 11,5 8,1 - - 15 8 - - WSW 1025,6 10 0,0
21.11.2020 17:00:00 11,8 7,8 - - 18 10 - - WSW 1025,5 40 0,0
21.11.2020 16:00:00 12,0 7,6 - - 18 10 - - WSW 1025,5 10 0,0
21.11.2020 15:00:00 12,2 7,2 - - 21 11 50 27 WSW 1025,5 10 0,0
21.11.2020 14:00:00 12,3 7,0 - - 29 16 - - WSW 1025,5 10 0,0
21.11.2020 13:00:00 12,0 7,0 - - 26 14 - - WSW 1026,1 10 0,0
21.11.2020 12:00:00 11,8 6,8 - - 31 17 55 30 WSW 1026,7 10 0,0
21.11.2020 11:00:00 11,5 6,3 - - 31 17 48 26 WSW 1026,8 10 0,0
21.11.2020 10:00:00 11,3 6,8 - - 28 15 46 25 WSW 1027,2 40 0,0
21.11.2020 09:00:00 10,9 6,7 10,2 12,2 21 11 54 29 WSW 1027,2 10 0,0
21.11.2020 08:00:00 10,6 7,2 - - 21 11 - - WSW 1027,0 10 0,0
21.11.2020 07:00:00 10,7 7,0 - - 26 14 - - WSW 1027,0 10 0,0
21.11.2020 06:00:00 10,3 7,8 - - 24 13 - - WSW 1027,2 50 0,0
21.11.2020 05:00:00 10,4 7,6 - - 24 13 - - WSW 1027,4 10 0,0
21.11.2020 04:00:00 10,2 7,7 - - 22 12 - - WSW 1027,2 10 0,0
21.11.2020 03:00:00 10,2 7,8 - - 22 12 - - WSW 1027,3 10 0,0
21.11.2020 02:00:00 10,2 8,0 - - 21 11 - - SW 1027,5 30 0,0
21.11.2020 01:00:00 10,1 7,9 - - 22 12 - - WSW 1028,0 30 0,0
21.11.2020 00:00:00 10,8 8,9 - - 21 11 - - SW 1028,5 30 0,0
20.11.2020 23:00:00 10,7 9,5 - - 16 9 - - SW 1028,9 10 0,0
20.11.2020 22:00:00 10,5 9,7 - - 16 9 - - SW 1029,4 17 0,0
20.11.2020 21:00:00 10,3 9,5 - - 15 8 - - SW 1029,7 29 0,0
20.11.2020 20:00:00 9,9 9,4 - - 15 8 - - SW 1029,8 10 0,0
20.11.2020 19:00:00 9,8 9,3 - - 15 8 - - SW 1030,1 10 0,0
20.11.2020 18:00:00 9,5 9,1 - - 16 9 - - SW 1030,4 10 0,2
20.11.2020 17:00:00 9,1 8,8 - - 15 8 - - SSW 1030,7 5 0,6
20.11.2020 16:00:00 8,9 8,3 - - 15 8 - - SSW 1031,2 5 0,2
20.11.2020 15:00:00 8,7 7,9 - - 16 9 - - SSW 1031,5 10 0,2
20.11.2020 14:00:00 8,5 7,1 - - 16 9 - - SSW 1032,4 10 0,0
20.11.2020 13:00:00 8,4 6,2 - - 16 9 - - SSW 1033,0 10 0,0
20.11.2020 12:00:00 7,9 5,3 - - 15 8 - - SSW 1033,8 10 0,0
20.11.2020 11:00:00 6,6 3,9 - - 8 4 - - SSW 1034,5 10 0,0
20.11.2020 10:00:00 5,2 3,8 - - 5 3 - - SSW 1034,8 20 0,0
20.11.2020 09:00:00 3,2 2,9 10,5 12,2 5 3 - - SSE 1034,9 10 0,0
20.11.2020 08:00:00 0,9 0,6 - - 0 0 - - N 1035,1 10 0,0
20.11.2020 07:00:00 1,0 0,9 - - 4 2 - - SSW 1034,8 10 0,0
20.11.2020 06:00:00 0,2 0,1 - - 4 2 - - SE 1035,0 10 0,0
20.11.2020 05:00:00 -0,3 -0,4 - - 0 0 - - N 1035,3 8 0,0
20.11.2020 04:00:00 -0,2 -0,5 - - 2 1 - - WSW 1035,2 7 0,0
20.11.2020 03:00:00 -0,1 -0,3 - - 0 0 - - N 1035,7 10 0,0
20.11.2020 02:00:00 0,3 -0,1 - - 2 1 - - W 1035,9 8 0,0
20.11.2020 01:00:00 1,1 0,6 - - 4 2 - - W 1036,0 10 0,0
20.11.2020 00:00:00 1,9 0,9 - - 4 2 - - W 1036,1 10 0,0
19.11.2020 23:00:00 2,6 1,9 - - 2 1 - - SW 1036,2 25 0,0
19.11.2020 22:00:00 2,5 0,8 - - 5 3 - - NW 1036,3 10 0,0
19.11.2020 21:00:00 3,3 1,7 - - 5 3 - - WNW 1035,1 30 0,0
19.11.2020 20:00:00 4,8 2,3 - - 9 5 - - WNW 1034,2 10 0,0
19.11.2020 19:00:00 5,2 2,8 - - 11 6 - - WNW 1033,5 10 0,0
19.11.2020 18:00:00 6,9 3,0 - - 9 5 - - WNW 1033,4 40 0,0
19.11.2020 17:00:00 7,6 3,9 - - 11 6 - - WNW 1033,0 10 0,0
19.11.2020 16:00:00 7,5 4,0 - - 13 7 - - NW 1031,9 10 0,0
19.11.2020 15:00:00 8,4 4,3 - - 13 7 - - N 1029,6 10 0,0
19.11.2020 14:00:00 8,5 5,7 - - 18 10 - - NNW 1030,1 30 0,0
19.11.2020 13:00:00 7,5 6,5 - - 21 11 - - N 1029,1 10 0,6
19.11.2020 12:00:00 8,4 6,9 - - 15 8 - - NNW 1026,8 10 0,2
19.11.2020 11:00:00 10,0 5,5 - - 26 14 - - WNW 1025,2 10 0,0
19.11.2020 10:00:00 9,7 7,2 - - 22 12 - - WNW 1024,0 10 0,0
19.11.2020 09:00:00 9,3 5,7 11,4 12,2 22 12 - - W 1022,6 10 0,0
19.11.2020 08:00:00 9,2 4,4 - - 24 13 - - W 1021,3 10 0,0
19.11.2020 07:00:00 8,7 3,7 - - 22 12 - - W 1019,7 40 0,0
19.11.2020 06:00:00 9,1 3,9 - - 28 15 46 25 W 1019,2 35 0,0
19.11.2020 05:00:00 9,4 3,7 - - 31 17 48 26 W 1018,3 10 0,0
19.11.2020 04:00:00 8,4 5,5 - - 21 11 - - W 1017,4 10 0,0
19.11.2020 03:00:00 8,9 5,1 - - 28 15 - - WSW 1017,3 25 0,0
19.11.2020 02:00:00 8,7 4,5 - - 26 14 - - WSW 1017,1 10 0,0
19.11.2020 01:00:00 7,9 3,9 - - 28 15 46 25 WSW 1017,1 10 0,0
19.11.2020 00:00:00 8,0 3,8 - - 29 16 - - WSW 1017,3 10 0,0
18.11.2020 23:00:00 8,2 4,0 - - 22 12 - - WSW 1017,5 10 0,0
18.11.2020 22:00:00 8,2 4,0 - - 22 12 - - WSW 1017,2 10 0,0
18.11.2020 21:00:00 8,4 4,1 - - 16 9 - - WSW 1016,7 10 0,0
18.11.2020 20:00:00 9,4 4,0 - - 26 14 52 28 W 1016,3 10 0,0
18.11.2020 19:00:00 10,5 4,4 - - 31 17 55 30 W 1015,5 10 0,0
18.11.2020 18:00:00 11,3 7,7 - - 28 15 55 30 W 1014,2 10 0,0
18.11.2020 17:00:00 11,6 10,1 - - 34 18 61 33 W 1013,4 5 0,2
18.11.2020 16:00:00 14,0 12,9 - - 24 13 - - SW 1011,6 7 0,0
18.11.2020 15:00:00 13,4 11,7 - - 22 12 - - SSW 1012,2 10 0,0
18.11.2020 14:00:00 13,5 11,0 - - 26 14 46 25 SSW 1012,5 10 0,0
18.11.2020 13:00:00 13,1 10,6 - - 29 16 46 25 SSW 1013,3 10 0,0
18.11.2020 12:00:00 15,7 9,3 - - 28 15 - - SSW 1013,9 10 0,0
18.11.2020 11:00:00 14,9 9,7 - - 26 14 - - S 1014,7 10 0,0
18.11.2020 10:00:00 13,0 10,0 - - 18 10 - - SSW 1015,7 10 0,0
18.11.2020 09:00:00 12,8 10,1 11,5 12,2 16 9 - - S 1016,3 10 0,0
18.11.2020 08:00:00 11,4 9,8 - - 13 7 - - S 1017,1 10 0,0
18.11.2020 07:00:00 12,1 10,0 - - 15 8 - - SSW 1017,6 20 0,0
18.11.2020 06:00:00 11,8 9,9 - - 9 5 - - S 1018,0 21 0,0
18.11.2020 05:00:00 11,6 9,9 - - 15 8 - - SSW 1018,6 10 0,0
18.11.2020 04:00:00 11,4 9,6 - - 18 10 - - SSW 1018,8 21 0,0
18.11.2020 03:00:00 11,9 9,7 - - 21 11 - - SSW 1019,1 24 0,0
18.11.2020 02:00:00 12,2 9,6 - - 16 9 - - SSW 1020,0 10 0,0
18.11.2020 01:00:00 12,5 9,8 - - 13 7 - - SSW 1020,8 28 0,0
18.11.2020 00:00:00 12,5 9,7 - - 11 6 - - S 1021,3 10 0,0
17.11.2020 23:00:00 12,5 9,8 - - 13 7 - - SSW 1021,5 28 0,0
17.11.2020 22:00:00 12,4 10,1 - - 13 7 - - SSW 1021,8 25 0,0

tt = temperature
td = dewpoint
tt -20cm = temperature -20cm
tt -100cm = temperature -100cm
ff = wind speed
fx = gusts
dd = wind direction
ppp = reduced air pressure
vv = visibility
rr = precipitation

Next stations